This is the latest recevied weather packets stored in our database for station/object IK0TIX. If no packets are shown the sender has not sent any weather packets the latest 10 day(s).
| Time | Temp. | Humidity | Pressure | Rain* | Wind** | Luminosity | Snow |
|---|---|---|---|---|---|---|---|
| 1777654254 | 23.33° C | 28% | 1019.8 hPa | 0 mm | - | - | - |
| 1777653284 | 23.33° C | 27% | 1019.8 hPa | 0 mm | - | - | - |
| 1777652101 | 23.33° C | 28% | 1019.8 hPa | 0 mm | - | - | - |
| 1777651197 | 23.33° C | 27% | 1019.9 hPa | 0 mm | - | - | - |
| 1777649396 | 23.33° C | 26% | 1019.9 hPa | 0 mm | - | - | - |
| 1777649071 | 23.33° C | 26% | 1019.8 hPa | 0 mm | - | - | - |
| 1777644895 | 22.78° C | 27% | 1020.1 hPa | 0 mm | - | - | - |
| 1777644572 | 22.78° C | 27% | 1020.1 hPa | 0 mm | - | - | - |
| 1777642470 | 22.78° C | 27% | 1020.3 hPa | 0 mm | - | - | - |
| 1777642188 | 22.78° C | 26% | 1020.3 hPa | 0 mm | - | - | - |
| 1777640390 | 22.78° C | 28% | 1020.6 hPa | 0 mm | - | - | - |
| 1777638587 | 21.67° C | 29% | 1020.7 hPa | 0 mm | - | - | - |
| 1777633493 | 20.56° C | 33% | 1021.5 hPa | 0 mm | - | - | - |
| 1777632602 | 21.11° C | 33% | 1021.5 hPa | 0 mm | - | - | - |
| 1777628706 | 20° C | 35% | 1021.8 hPa | 0 mm | - | - | - |
| 1777627510 | 19.44° C | 34% | 1021.9 hPa | 0 mm | - | - | - |
| 1777627171 | 18.89° C | 38% | 1021.9 hPa | 0 mm | - | - | - |
| 1777626307 | 18.33° C | 36% | 1021.9 hPa | 0 mm | - | - | - |
| 1777625999 | 18.33° C | 39% | 1022 hPa | 0 mm | - | - | - |
| 1777625398 | 17.78° C | 40% | 1022 hPa | 0 mm | - | - | - |
| 1777624789 | 17.78° C | 39% | 1022 hPa | 0 mm | - | - | - |
| 1777624486 | 17.78° C | 40% | 1022 hPa | 0 mm | - | - | - |
| 1777624174 | 17.78° C | 42% | 1022 hPa | 0 mm | - | - | - |
| 1777623870 | 17.22° C | 43% | 1021.9 hPa | 0 mm | - | - | - |
| 1777621184 | 16.11° C | 48% | 1022 hPa | 0 mm | - | - | - |
* Rain latest hour (hover to see other rain measurements)
** Current wind speed in m/s (hover to see current wind gust speed)